Satellite-Ground Cal/Val Site Overpasses Predictions

Prediction of Satellite NPP Overpassing Cal/Val Site: Antarctic Dome C

Ground Cal/Val Site Location: Latitude: -75.10, Longitude: 123.35; Satellite-Ground Site NADIR distance within 100 km.

Table of predicted overpasses for the next 14.0 days since TLE Epoch: 10/2/2020
Interval Starting Time Ending Time Minimum Distance Time Minimum Distance (km)
1 10/04/2020 14:55:04 10/04/2020 14:55:32 10/04/2020 14:55:18 18.55
2 10/05/2020 14:36:22 10/05/2020 14:36:36 10/05/2020 14:36:29 88.36
3 10/06/2020 07:37:53 10/06/2020 07:38:20 10/06/2020 07:38:07 37.88
4 10/07/2020 07:19:07 10/07/2020 07:19:27 10/07/2020 07:19:17 72.16
5 10/09/2020 15:01:21 10/09/2020 15:01:45 10/09/2020 15:01:33 55.74
6 10/10/2020 14:42:30 10/10/2020 14:42:55 10/10/2020 14:42:43 53.40
7 10/11/2020 07:44:12 10/11/2020 07:44:31 10/11/2020 07:44:21 73.24
8 10/12/2020 07:25:18 10/12/2020 07:25:46 10/12/2020 07:25:32 34.70
9 10/14/2020 15:07:42 10/14/2020 15:07:52 10/14/2020 15:07:47 93.58
